Time,TemperatureF,DewpointF,PressureIn,WindDirection,WindDirectionDegrees,WindSpeedMPH,WindSpeedGustMPH,Humidity,HourlyPrecipIn,Conditions,Clouds,dailyrainin,SolarRadiationWatts/m^2,SoftwareType,DateUTC
2013-08-09 00:00:00,46.7,44.2,29.88,West,263,1.0,1.0,91,0.00,,,0.12,0,Wunderground v.1.15,2013-08-09 06:00:00,
2013-08-09 00:05:00,46.5,43.7,29.88,SSW,206,3.0,4.0,90,0.00,,,0.12,0,Wunderground v.1.15,2013-08-09 06:05:00,
2013-08-09 00:15:00,46.4,43.6,29.87,SW,223,3.0,6.0,90,0.00,,,0.12,0,Wunderground v.1.15,2013-08-09 06:15:00,
2013-08-09 00:20:00,46.2,43.4,29.87,SSW,213,2.0,2.0,90,0.00,,,0.00,0,Wunderground v.1.15,2013-08-09 06:20:00,
2013-08-09 00:25:00,46.2,43.4,29.87,SSW,208,2.0,2.0,90,0.00,,,0.00,0,Wunderground v.1.15,2013-08-09 06:25:00,
2013-08-09 00:30:00,46.2,43.4,29.87,SSW,206,0.0,0.0,90,0.00,,,0.00,0,Wunderground v.1.15,2013-08-09 06:30:00,
2013-08-09 00:35:00,46.2,43.4,29.87,South,172,1.0,2.0,90,0.00,,,0.00,0,Wunderground v.1.15,2013-08-09 06:35:00,
2013-08-09 00:45:00,46.1,43.3,29.88,South,172,0.0,1.0,90,0.00,,,0.00,0,Wunderground v.1.15,2013-08-09 06:45:00,
2013-08-09 00:50:00,46.1,43.3,29.88,South,172,0.0,0.0,90,0.00,,,0.00,0,Wunderground v.1.15,2013-08-09 06:50:00,
2013-08-09 00:55:00,46.1,43.3,29.88,South,172,0.0,0.0,90,0.00,,,0.00,0,Wunderground v.1.15,2013-08-09 06:55:00,
2013-08-09 01:05:00,45.8,42.7,29.89,South,185,0.0,2.0,89,0.00,,,0.00,0,Wunderground v.1.15,2013-08-09 07:05:00,
2013-08-09 01:10:00,45.7,42.6,29.89,WSW,237,2.0,2.0,89,0.00,,,0.00,0,Wunderground v.1.15,2013-08-09 07:10:00,
2013-08-09 01:15:00,45.5,42.4,29.87,SSW,212,3.0,3.0,89,0.00,,,0.00,0,Wunderground v.1.15,2013-08-09 07:15:00,
2013-08-09 01:20:00,45.5,42.4,29.87,South,181,2.0,2.0,89,0.00,,,0.00,0,Wunderground v.1.15,2013-08-09 07:20:00,
2013-08-09 01:25:00,45.4,42.3,29.87,South,181,0.0,2.0,89,0.00,,,0.00,0,Wunderground v.1.15,2013-08-09 07:25:00,
2013-08-09 01:30:00,45.4,42.3,29.91,South,181,0.0,0.0,89,0.00,,,0.00,0,Wunderground v.1.15,2013-08-09 07:30:00,
2013-08-09 01:35:00,45.4,42.3,29.91,South,181,0.0,0.0,89,0.00,,,0.00,0,Wunderground v.1.15,2013-08-09 07:35:00,
2013-08-09 01:45:00,45.2,42.2,29.91,SW,219,2.0,2.0,89,0.00,,,0.00,0,Wunderground v.1.15,2013-08-09 07:45:00,
2013-08-09 01:50:00,45.2,42.2,29.91,SW,226,2.0,2.0,89,0.00,,,0.00,0,Wunderground v.1.15,2013-08-09 07:50:00,
2013-08-09 01:55:00,45.1,42.1,29.91,SW,226,0.0,2.0,89,0.00,,,0.00,0,Wunderground v.1.15,2013-08-09 07:55:00,
2013-08-09 02:00:00,45.1,42.1,29.91,SW,226,0.0,0.0,89,0.00,,,0.00,0,Wunderground v.1.15,2013-08-09 08:00:00,
2013-08-09 02:10:00,45.1,42.1,29.91,SW,226,0.0,0.0,89,0.00,,,0.00,0,Wunderground v.1.15,2013-08-09 08:10:00,
2013-08-09 02:15:00,44.9,41.9,29.91,SW,226,0.0,0.0,89,0.00,,,0.00,0,Wunderground v.1.15,2013-08-09 08:15:00,
2013-08-09 02:20:00,44.9,41.9,29.91,SW,226,0.0,0.0,89,0.00,,,0.00,0,Wunderground v.1.15,2013-08-09 08:20:00,
2013-08-09 02:25:00,44.9,41.9,29.91,SW,226,0.0,0.0,89,0.00,,,0.00,0,Wunderground v.1.15,2013-08-09 08:25:00,
2013-08-09 02:30:00,44.8,41.8,29.92,SW,226,0.0,0.0,89,0.00,,,0.00,0,Wunderground v.1.15,2013-08-09 08:30:00,
2013-08-09 02:35:00,44.8,41.8,29.92,SW,226,0.0,0.0,89,0.00,,,0.00,0,Wunderground v.1.15,2013-08-09 08:35:00,
2013-08-09 02:40:00,44.6,41.6,29.92,SW,226,0.0,0.0,89,0.00,,,0.00,0,Wunderground v.1.15,2013-08-09 08:40:00,
2013-08-09 02:50:00,44.3,41.0,29.92,SW,226,0.0,0.0,88,0.00,,,0.00,0,Wunderground v.1.15,2013-08-09 08:50:00,
2013-08-09 02:55:00,44.2,40.9,29.92,SW,226,0.0,0.0,88,0.00,,,0.00,0,Wunderground v.1.15,2013-08-09 08:55:00,
2013-08-09 03:00:00,44.1,40.8,29.92,SW,226,0.0,0.0,88,0.00,,,0.00,0,Wunderground v.1.15,2013-08-09 09:00:00,
2013-08-09 03:05:00,43.9,40.6,29.92,SW,226,0.0,0.0,88,0.00,,,0.00,0,Wunderground v.1.15,2013-08-09 09:05:00,
2013-08-09 03:10:00,43.8,40.5,29.92,SW,230,0.0,0.0,88,0.00,,,0.00,0,Wunderground v.1.15,2013-08-09 09:10:00,
2013-08-09 03:15:00,43.6,40.3,29.91,West,277,1.0,1.0,88,0.00,,,0.00,0,Wunderground v.1.15,2013-08-09 09:15:00,
2013-08-09 03:20:00,43.6,40.3,29.91,West,260,1.0,1.0,88,0.00,,,0.00,0,Wunderground v.1.15,2013-08-09 09:20:00,
2013-08-09 03:25:00,43.5,40.2,29.91,West,277,1.0,1.0,88,0.00,,,0.00,0,Wunderground v.1.15,2013-08-09 09:25:00,
2013-08-09 03:30:00,43.5,40.2,29.88,West,277,1.0,1.0,88,0.00,,,0.00,0,Wunderground v.1.15,2013-08-09 09:30:00,
2013-08-09 03:35:00,43.3,40.0,29.88,West,277,0.0,1.0,88,0.00,,,0.00,0,Wunderground v.1.15,2013-08-09 09:35:00,
2013-08-09 03:45:00,43.2,39.9,29.89,West,277,0.0,0.0,88,0.00,,,0.00,0,Wunderground v.1.15,2013-08-09 09:45:00,
2013-08-09 03:50:00,43.2,40.2,29.89,West,275,0.0,0.0,89,0.00,,,0.00,0,Wunderground v.1.15,2013-08-09 09:50:00,
2013-08-09 03:55:00,43.2,40.2,29.89,WSW,239,0.0,1.0,89,0.00,,,0.00,0,Wunderground v.1.15,2013-08-09 09:55:00,
2013-08-09 04:00:00,43.2,40.2,29.88,SSW,203,1.0,2.0,89,0.00,,,0.00,0,Wunderground v.1.15,2013-08-09 10:00:00,
2013-08-09 04:05:00,43.2,40.2,29.88,SW,232,2.0,4.0,89,0.00,,,0.00,0,Wunderground v.1.15,2013-08-09 10:05:00,
2013-08-09 04:10:00,43.2,40.2,29.88,SW,226,1.0,4.0,89,0.00,,,0.00,0,Wunderground v.1.15,2013-08-09 10:10:00,
2013-08-09 04:15:00,43.3,40.3,29.87,SSE,152,1.0,6.0,89,0.00,,,0.00,0,Wunderground v.1.15,2013-08-09 10:15:00,
2013-08-09 04:20:00,43.3,40.3,29.87,SSE,155,1.0,1.0,89,0.00,,,0.00,0,Wunderground v.1.15,2013-08-09 10:20:00,
2013-08-09 04:25:00,43.3,40.3,29.87,SSE,162,1.0,1.0,89,0.00,,,0.00,0,Wunderground v.1.15,2013-08-09 10:25:00,
2013-08-09 04:30:00,43.3,40.3,29.93,SSE,157,1.0,1.0,89,0.00,,,0.00,0,Wunderground v.1.15,2013-08-09 10:30:00,
2013-08-09 04:40:00,43.3,40.3,29.93,SSE,158,0.0,0.0,89,0.00,,,0.00,0,Wunderground v.1.15,2013-08-09 10:40:00,
2013-08-09 04:45:00,43.3,40.3,29.93,SSE,160,0.0,2.0,89,0.00,,,0.00,0,Wunderground v.1.15,2013-08-09 10:45:00,
2013-08-09 04:50:00,43.2,40.2,29.93,SW,229,3.0,6.0,89,0.00,,,0.00,0,Wunderground v.1.15,2013-08-09 10:50:00,
2013-08-09 05:00:00,43.2,40.2,29.93,SW,232,2.0,2.0,89,0.00,,,0.00,0,Wunderground v.1.15,2013-08-09 11:00:00,
2013-08-09 05:05:00,43.2,40.2,29.93,SW,232,0.0,2.0,89,0.00,,,0.00,0,Wunderground v.1.15,2013-08-09 11:05:00,
2013-08-09 05:10:00,43.1,40.1,29.93,SW,234,1.0,4.0,89,0.00,,,0.00,0,Wunderground v.1.15,2013-08-09 11:10:00,
2013-08-09 05:15:00,43.1,40.1,29.93,SW,233,3.0,6.0,89,0.00,,,0.00,0,Wunderground v.1.15,2013-08-09 11:15:00,
2013-08-09 05:25:00,42.9,39.6,29.93,West,278,1.0,2.0,88,0.00,,,0.00,0,Wunderground v.1.15,2013-08-09 11:25:00,
2013-08-09 05:30:00,42.9,39.6,30.04,West,274,0.0,0.0,88,0.00,,,0.00,0,Wunderground v.1.15,2013-08-09 11:30:00,
2013-08-09 05:40:00,42.9,39.6,30.04,WSW,256,1.0,1.0,88,0.00,,,0.00,0,Wunderground v.1.15,2013-08-09 11:40:00,
2013-08-09 05:45:00,42.8,39.5,30.04,West,261,0.0,1.0,88,0.00,,,0.00,0,Wunderground v.1.15,2013-08-09 11:45:00,
2013-08-09 05:50:00,42.8,39.5,30.04,West,261,0.0,4.0,88,0.00,,,0.00,0,Wunderground v.1.15,2013-08-09 11:50:00,
2013-08-09 05:55:00,42.8,39.5,30.04,WSW,254,1.0,4.0,88,0.00,,,0.00,0,Wunderground v.1.15,2013-08-09 11:55:00,
2013-08-09 06:00:00,42.6,39.3,30.05,West,274,3.0,8.0,88,0.00,,,0.00,0,Wunderground v.1.15,2013-08-09 12:00:00,
2013-08-09 06:05:00,42.6,39.3,30.05,WSW,253,3.0,8.0,88,0.00,,,0.00,0,Wunderground v.1.15,2013-08-09 12:05:00,
2013-08-09 06:15:00,42.8,39.5,30.05,WSW,256,0.0,1.0,88,0.00,,,0.00,0,Wunderground v.1.15,2013-08-09 12:15:00,
2013-08-09 06:25:00,42.8,39.8,30.05,WSW,256,0.0,0.0,89,0.00,,,0.00,5,Wunderground v.1.15,2013-08-09 12:25:00,
2013-08-09 06:30:00,42.9,39.9,30.05,WSW,256,0.0,0.0,89,0.00,,,0.00,5,Wunderground v.1.15,2013-08-09 12:30:00,
2013-08-09 06:35:00,42.9,39.9,30.05,WSW,256,0.0,0.0,89,0.00,,,0.00,7,Wunderground v.1.15,2013-08-09 12:35:00,
2013-08-09 06:40:00,42.9,39.9,30.05,WSW,256,0.0,0.0,89,0.00,,,0.00,7,Wunderground v.1.15,2013-08-09 12:40:00,
2013-08-09 06:45:00,42.9,39.9,30.05,WSW,256,0.0,0.0,89,0.00,,,0.00,5,Wunderground v.1.15,2013-08-09 12:45:00,
2013-08-09 06:50:00,43.1,40.1,30.05,WSW,256,0.0,0.0,89,0.00,,,0.00,5,Wunderground v.1.15,2013-08-09 12:50:00,
2013-08-09 06:55:00,43.2,40.2,30.05,SW,222,0.0,0.0,89,0.00,,,0.00,5,Wunderground v.1.15,2013-08-09 12:55:00,
2013-08-09 07:00:00,43.2,40.5,30.05,SW,222,0.0,0.0,90,0.00,,,0.00,5,Wunderground v.1.15,2013-08-09 13:00:00,
2013-08-09 07:05:00,43.3,40.6,30.05,SW,222,0.0,0.0,90,0.00,,,0.00,5,Wunderground v.1.15,2013-08-09 13:05:00,
2013-08-09 07:10:00,43.3,40.6,30.05,SW,222,0.0,0.0,90,0.00,,,0.00,9,Wunderground v.1.15,2013-08-09 13:10:00,
2013-08-09 07:15:00,43.5,40.8,30.06,SW,222,0.0,0.0,90,0.00,,,0.00,11,Wunderground v.1.15,2013-08-09 13:15:00,
2013-08-09 07:20:00,43.5,40.8,30.06,SW,222,0.0,0.0,90,0.00,,,0.00,14,Wunderground v.1.15,2013-08-09 13:20:00,
2013-08-09 07:25:00,43.6,40.9,30.06,SW,222,0.0,0.0,90,0.00,,,0.00,16,Wunderground v.1.15,2013-08-09 13:25:00,
2013-08-09 07:35:00,43.8,41.1,30.06,SW,222,0.0,0.0,90,0.00,,,0.00,32,Wunderground v.1.15,2013-08-09 13:35:00,
2013-08-09 07:40:00,43.8,41.3,30.06,SW,222,0.0,0.0,91,0.00,,,0.00,39,Wunderground v.1.15,2013-08-09 13:40:00,
2013-08-09 07:45:00,43.9,41.4,30.07,SW,222,0.0,0.0,91,0.00,,,0.00,40,Wunderground v.1.15,2013-08-09 13:45:00,
2013-08-09 07:50:00,44.1,41.6,30.07,SW,222,0.0,0.0,91,0.00,,,0.00,44,Wunderground v.1.15,2013-08-09 13:50:00,
2013-08-09 07:55:00,44.2,41.7,30.07,SW,222,0.0,0.0,91,0.00,,,0.00,49,Wunderground v.1.15,2013-08-09 13:55:00,
2013-08-09 08:00:00,44.3,42.1,30.08,SW,222,0.0,0.0,92,0.00,,,0.00,72,Wunderground v.1.15,2013-08-09 14:00:00,
2013-08-09 08:05:00,44.5,42.3,30.08,SW,222,0.0,0.0,92,0.00,,,0.00,83,Wunderground v.1.15,2013-08-09 14:05:00,
2013-08-09 08:10:00,44.8,42.6,30.08,SW,233,1.0,2.0,92,0.00,,,0.00,86,Wunderground v.1.15,2013-08-09 14:10:00,
2013-08-09 08:15:00,45.2,43.0,30.06,SW,233,1.0,2.0,92,0.00,,,0.00,97,Wunderground v.1.15,2013-08-09 14:15:00,
2013-08-09 08:20:00,45.7,43.5,30.06,SW,233,0.0,0.0,92,0.00,,,0.00,106,Wunderground v.1.15,2013-08-09 14:20:00,
2013-08-09 08:25:00,46.1,44.2,30.06,WSW,244,0.0,1.0,93,0.00,,,0.00,109,Wunderground v.1.15,2013-08-09 14:25:00,
2013-08-09 08:35:00,47.1,45.2,30.04,West,264,0.0,1.0,93,0.00,,,0.00,97,Wunderground v.1.15,2013-08-09 14:35:00,
2013-08-09 08:40:00,47.6,45.7,30.04,West,275,0.0,0.0,93,0.00,,,0.00,97,Wunderground v.1.15,2013-08-09 14:40:00,
2013-08-09 08:45:00,47.9,46.0,30.02,West,275,0.0,0.0,93,0.00,,,0.00,95,Wunderground v.1.15,2013-08-09 14:45:00,
2013-08-09 08:50:00,48.2,46.3,30.02,West,275,0.0,0.0,93,0.00,,,0.00,93,Wunderground v.1.15,2013-08-09 14:50:00,
2013-08-09 08:55:00,48.3,46.4,30.02,West,275,0.0,0.0,93,0.00,,,0.00,109,Wunderground v.1.15,2013-08-09 14:55:00,
2013-08-09 09:00:00,48.8,46.6,30.03,WNW,291,1.0,1.0,92,0.00,,,0.00,113,Wunderground v.1.15,2013-08-09 15:00:00,
2013-08-09 09:05:00,48.9,46.4,30.03,WNW,292,0.0,1.0,91,0.00,,,0.00,104,Wunderground v.1.15,2013-08-09 15:05:00,
2013-08-09 09:10:00,49.4,46.6,30.03,WNW,292,0.0,1.0,90,0.00,,,0.00,97,Wunderground v.1.15,2013-08-09 15:10:00,
2013-08-09 09:20:00,50.4,46.1,30.01,East,99,1.0,2.0,85,0.00,,,0.00,88,Wunderground v.1.15,2013-08-09 15:20:00,
2013-08-09 09:25:00,51.0,45.0,30.01,SE,131,2.0,7.0,80,0.00,,,0.00,70,Wunderground v.1.15,2013-08-09 15:25:00,
2013-08-09 09:30:00,51.6,43.6,30.00,ESE,117,3.0,3.0,74,0.00,,,0.00,40,Wunderground v.1.15,2013-08-09 15:30:00,
2013-08-09 09:35:00,52.3,43.5,30.00,SE,127,2.0,3.0,72,0.00,,,0.00,30,Wunderground v.1.15,2013-08-09 15:35:00,
2013-08-09 09:45:00,53.3,44.1,29.98,East,95,1.0,4.0,71,0.00,,,0.00,40,Wunderground v.1.15,2013-08-09 15:45:00,
2013-08-09 09:50:00,53.8,44.2,29.98,East,93,1.0,1.0,70,0.00,,,0.00,55,Wunderground v.1.15,2013-08-09 15:50:00,
2013-08-09 09:55:00,54.1,43.8,29.98,ENE,76,1.0,1.0,68,0.00,,,0.00,55,Wunderground v.1.15,2013-08-09 15:55:00,
2013-08-09 10:00:00,54.7,44.0,29.96,East,95,1.0,2.0,67,0.00,,,0.00,56,Wunderground v.1.15,2013-08-09 16:00:00,
2013-08-09 10:10:00,55.7,44.9,29.96,NE,51,2.0,2.0,67,0.00,,,0.00,252,Wunderground v.1.15,2013-08-09 16:10:00,
2013-08-09 10:15:00,56.3,45.5,29.96,NNE,21,2.0,2.0,67,0.00,,,0.00,62,Wunderground v.1.15,2013-08-09 16:15:00,
2013-08-09 10:20:00,56.7,45.1,29.96,North,7,2.0,6.0,65,0.00,,,0.00,90,Wunderground v.1.15,2013-08-09 16:20:00,
2013-08-09 10:25:00,57.2,45.1,29.96,NE,34,3.0,6.0,64,0.00,,,0.00,123,Wunderground v.1.15,2013-08-09 16:25:00,
2013-08-09 10:35:00,61.3,45.5,29.94,North,8,2.0,7.0,56,0.00,,,0.00,111,Wunderground v.1.15,2013-08-09 16:35:00,
2013-08-09 10:40:00,62.1,46.2,29.94,NE,35,3.0,3.0,56,0.00,,,0.00,106,Wunderground v.1.15,2013-08-09 16:40:00,
2013-08-09 10:45:00,62.7,46.8,29.89,ENE,72,4.0,4.0,56,0.00,,,0.00,84,Wunderground v.1.15,2013-08-09 16:45:00,
2013-08-09 10:50:00,62.9,46.0,29.89,NNE,16,4.0,7.0,54,0.00,,,0.00,121,Wunderground v.1.15,2013-08-09 16:50:00,
2013-08-09 11:00:00,63.5,47.0,29.90,NE,35,5.0,5.0,55,0.00,,,0.00,292,Wunderground v.1.15,2013-08-09 17:00:00,
2013-08-09 11:05:00,63.5,47.5,29.90,ENE,66,4.0,5.0,56,0.00,,,0.00,815,Wunderground v.1.15,2013-08-09 17:05:00,
2013-08-09 11:15:00,64.2,46.7,29.89,NE,51,6.0,7.0,53,0.00,,,0.00,850,Wunderground v.1.15,2013-08-09 17:15:00,
2013-08-09 11:20:00,65.3,47.2,29.89,East,97,6.0,9.0,52,0.00,,,0.00,920,Wunderground v.1.15,2013-08-09 17:20:00,
2013-08-09 11:25:00,65.3,45.6,29.89,SE,134,4.0,9.0,49,0.00,,,0.00,924,Wunderground v.1.15,2013-08-09 17:25:00,
2013-08-09 11:30:00,66.1,45.8,29.88,SE,136,4.0,4.0,48,0.00,,,0.00,955,Wunderground v.1.15,2013-08-09 17:30:00,
2013-08-09 11:35:00,66.3,45.5,29.88,SE,128,5.0,8.0,47,0.00,,,0.00,1013,Wunderground v.1.15,2013-08-09 17:35:00,
2013-08-09 11:45:00,64.0,44.4,29.89,NE,44,5.0,5.0,49,0.00,,,0.00,980,Wunderground v.1.15,2013-08-09 17:45:00,
2013-08-09 11:50:00,66.0,46.8,29.89,ESE,119,3.0,4.0,50,0.00,,,0.00,1024,Wunderground v.1.15,2013-08-09 17:50:00,
2013-08-09 11:55:00,67.4,46.5,29.89,ESE,112,5.0,5.0,47,0.00,,,0.00,1029,Wunderground v.1.15,2013-08-09 17:55:00,
2013-08-09 12:00:00,66.6,45.7,29.86,East,97,5.0,10.0,47,0.00,,,0.00,1008,Wunderground v.1.15,2013-08-09 18:00:00,
2013-08-09 12:05:00,67.9,46.9,29.86,NE,38,4.0,10.0,47,0.00,,,0.00,1010,Wunderground v.1.15,2013-08-09 18:05:00,
2013-08-09 12:15:00,67.8,43.9,29.85,NE,51,5.0,5.0,42,0.00,,,0.00,260,Wunderground v.1.15,2013-08-09 18:15:00,
2013-08-09 12:20:00,65.6,43.1,29.85,NNE,14,4.0,4.0,44,0.00,,,0.00,130,Wunderground v.1.15,2013-08-09 18:20:00,
2013-08-09 12:30:00,62.9,44.5,29.92,NE,48,3.0,3.0,51,0.00,,,0.00,23,Wunderground v.1.15,2013-08-09 18:30:00,
2013-08-09 12:35:00,61.6,44.3,29.92,East,96,2.0,4.0,53,0.00,,,0.00,25,Wunderground v.1.15,2013-08-09 18:35:00,
2013-08-09 12:40:00,60.5,43.3,29.92,NE,54,1.0,2.0,53,0.00,,,0.00,19,Wunderground v.1.15,2013-08-09 18:40:00,
2013-08-09 12:50:00,57.8,48.1,29.94,North,353,2.0,7.0,70,0.00,,,0.01,26,Wunderground v.1.15,2013-08-09 18:50:00,
2013-08-09 13:00:00,51.1,45.8,30.00,West,281,1.0,1.0,82,0.37,,,0.12,37,Wunderground v.1.15,2013-08-09 19:00:00,
2013-08-09 13:05:00,50.4,47.0,30.00,SE,143,1.0,1.0,88,0.10,,,0.12,162,Wunderground v.1.15,2013-08-09 19:05:00,
2013-08-09 13:15:00,53.9,50.7,29.98,ESE,120,0.0,2.0,89,0.12,,,0.14,926,Wunderground v.1.15,2013-08-09 19:15:00,
2013-08-09 13:20:00,54.7,48.6,29.98,ESE,120,0.0,0.0,80,0.07,,,0.15,774,Wunderground v.1.15,2013-08-09 19:20:00,
2013-08-09 13:25:00,56.6,52.1,29.98,NNW,335,1.0,1.0,85,0.07,,,0.15,774,Wunderground v.1.15,2013-08-09 19:25:00,
2013-08-09 13:30:00,55.6,49.5,29.98,NNW,333,1.0,1.0,80,0.05,,,0.15,77,Wunderground v.1.15,2013-08-09 19:30:00,
2013-08-09 13:40:00,54.1,49.4,29.98,NNW,333,1.0,6.0,84,0.00,,,0.15,40,Wunderground v.1.15,2013-08-09 19:40:00,
2013-08-09 13:45:00,53.5,49.1,30.00,North,352,2.0,6.0,85,0.00,,,0.15,44,Wunderground v.1.15,2013-08-09 19:45:00,
2013-08-09 13:55:00,52.9,48.8,30.00,NW,326,2.0,2.0,86,0.00,,,0.15,39,Wunderground v.1.15,2013-08-09 19:55:00,
2013-08-09 14:05:00,52.6,48.8,30.01,NW,326,0.0,1.0,87,0.00,,,0.15,44,Wunderground v.1.15,2013-08-09 20:05:00,
2013-08-09 14:10:00,52.5,48.7,30.01,NW,326,0.0,1.0,87,0.00,,,0.15,56,Wunderground v.1.15,2013-08-09 20:10:00,
2013-08-09 14:15:00,52.6,49.4,30.01,WSW,248,1.0,6.0,89,0.00,,,0.15,49,Wunderground v.1.15,2013-08-09 20:15:00,
2013-08-09 14:20:00,52.0,47.6,30.01,WSW,251,3.0,6.0,85,0.00,,,0.15,39,Wunderground v.1.15,2013-08-09 20:20:00,
2013-08-09 14:25:00,51.6,46.3,30.01,SW,232,3.0,6.0,82,0.00,,,0.15,26,Wunderground v.1.15,2013-08-09 20:25:00,
2013-08-09 14:35:00,51.4,47.4,30.05,WSW,241,1.0,1.0,86,0.00,,,0.15,23,Wunderground v.1.15,2013-08-09 20:35:00,
2013-08-09 14:40:00,51.3,46.9,30.05,WSW,256,2.0,2.0,85,0.00,,,0.15,28,Wunderground v.1.15,2013-08-09 20:40:00,
2013-08-09 14:45:00,51.0,47.0,30.07,WSW,258,3.0,4.0,86,0.00,,,0.16,32,Wunderground v.1.15,2013-08-09 20:45:00,
2013-08-09 14:50:00,51.0,47.3,30.07,WSW,254,3.0,3.0,87,0.00,,,0.16,32,Wunderground v.1.15,2013-08-09 20:50:00,
2013-08-09 15:00:00,51.0,47.9,30.07,WSW,257,0.0,0.0,89,0.00,,,0.16,23,Wunderground v.1.15,2013-08-09 21:00:00,
2013-08-09 15:10:00,51.3,48.5,30.07,WSW,257,1.0,1.0,90,0.00,,,0.16,25,Wunderground v.1.15,2013-08-09 21:10:00,
2013-08-09 15:20:00,51.4,48.6,30.07,WSW,258,0.0,0.0,90,0.00,,,0.17,51,Wunderground v.1.15,2013-08-09 21:20:00,
2013-08-09 15:25:00,51.7,48.9,30.07,WSW,258,0.0,0.0,90,0.09,,,0.17,102,Wunderground v.1.15,2013-08-09 21:25:00,
2013-08-09 15:30:00,52.0,48.9,30.06,WSW,258,0.0,1.0,89,0.09,,,0.18,199,Wunderground v.1.15,2013-08-09 21:30:00,
2013-08-09 15:35:00,52.9,49.7,30.06,WNW,301,1.0,2.0,89,0.06,,,0.18,463,Wunderground v.1.15,2013-08-09 21:35:00,
2013-08-09 15:40:00,54.1,50.9,30.06,NW,326,2.0,2.0,89,0.04,,,0.18,406,Wunderground v.1.15,2013-08-09 21:40:00,
2013-08-09 15:45:00,54.2,49.8,30.05,NW,326,1.0,2.0,85,0.00,,,0.18,259,Wunderground v.1.15,2013-08-09 21:45:00,
2013-08-09 15:50:00,54.2,49.5,30.05,NNW,328,1.0,1.0,84,0.00,,,0.18,199,Wunderground v.1.15,2013-08-09 21:50:00,
2013-08-09 15:55:00,54.2,48.8,30.05,NNW,328,1.0,1.0,82,0.00,,,0.18,169,Wunderground v.1.15,2013-08-09 21:55:00,
2013-08-09 16:00:00,54.2,48.5,30.05,NNW,328,0.0,0.0,81,0.00,,,0.18,121,Wunderground v.1.15,2013-08-09 22:00:00,
2013-08-09 16:05:00,54.4,48.7,30.05,NW,326,0.0,6.0,81,0.00,,,0.18,97,Wunderground v.1.15,2013-08-09 22:05:00,
2013-08-09 16:15:00,53.5,47.8,30.04,West,278,2.0,4.0,81,0.00,,,0.18,42,Wunderground v.1.15,2013-08-09 22:15:00,
2013-08-09 16:20:00,53.2,48.2,30.04,West,275,2.0,4.0,83,0.00,,,0.18,46,Wunderground v.1.15,2013-08-09 22:20:00,
2013-08-09 16:30:00,52.8,47.5,30.05,WSW,251,3.0,4.0,82,0.00,,,0.18,88,Wunderground v.1.15,2013-08-09 22:30:00,
2013-08-09 16:35:00,52.9,47.2,30.05,West,270,3.0,4.0,81,0.00,,,0.18,86,Wunderground v.1.15,2013-08-09 22:35:00,
2013-08-09 16:40:00,53.1,47.7,30.05,WSW,244,4.0,4.0,82,0.00,,,0.18,114,Wunderground v.1.15,2013-08-09 22:40:00,
2013-08-09 16:50:00,53.6,47.2,30.04,WSW,257,4.0,4.0,79,0.00,,,0.18,167,Wunderground v.1.15,2013-08-09 22:50:00,
2013-08-09 16:55:00,53.9,46.9,30.04,SW,230,4.0,7.0,77,0.00,,,0.18,128,Wunderground v.1.15,2013-08-09 22:55:00,
2013-08-09 17:00:00,53.9,46.2,30.05,WSW,258,5.0,5.0,75,0.00,,,0.18,77,Wunderground v.1.15,2013-08-09 23:00:00,
2013-08-09 17:05:00,53.8,46.8,30.05,SW,220,4.0,5.0,77,0.00,,,0.18,53,Wunderground v.1.15,2013-08-09 23:05:00,
2013-08-09 17:10:00,53.6,46.9,30.05,WSW,256,3.0,3.0,78,0.00,,,0.18,40,Wunderground v.1.15,2013-08-09 23:10:00,
2013-08-09 17:20:00,52.6,45.6,30.04,West,264,4.0,4.0,77,0.00,,,0.18,28,Wunderground v.1.15,2013-08-09 23:20:00,
2013-08-09 17:25:00,52.3,46.0,30.04,West,264,2.0,4.0,79,0.00,,,0.18,37,Wunderground v.1.15,2013-08-09 23:25:00,
2013-08-09 17:30:00,52.2,46.5,30.06,West,263,1.0,1.0,81,0.00,,,0.18,49,Wunderground v.1.15,2013-08-09 23:30:00,
2013-08-09 17:40:00,52.3,45.3,30.06,SSW,208,1.0,1.0,77,0.00,,,0.18,62,Wunderground v.1.15,2013-08-09 23:40:00,
2013-08-09 17:50:00,52.5,45.8,30.05,SSW,210,0.0,4.0,78,0.00,,,0.18,51,Wunderground v.1.15,2013-08-09 23:50:00,
2013-08-09 17:55:00,52.6,45.6,30.05,SSW,212,0.0,4.0,77,0.00,,,0.18,48,Wunderground v.1.15,2013-08-09 23:55:00,
2013-08-09 18:00:00,52.6,46.6,30.04,SSW,212,0.0,0.0,80,0.00,,,0.18,46,Wunderground v.1.15,2013-08-10 00:00:00,
2013-08-09 18:05:00,52.6,46.9,30.04,SSW,212,0.0,0.0,81,0.00,,,0.18,46,Wunderground v.1.15,2013-08-10 00:05:00,
2013-08-09 18:10:00,52.9,48.2,30.04,SSW,213,0.0,0.0,84,0.00,,,0.18,69,Wunderground v.1.15,2013-08-10 00:10:00,
2013-08-09 18:20:00,53.1,47.7,30.02,SSW,213,0.0,0.0,82,0.00,,,0.18,46,Wunderground v.1.15,2013-08-10 00:20:00,
2013-08-09 18:25:00,53.2,47.5,30.02,SSW,213,0.0,0.0,81,0.00,,,0.18,44,Wunderground v.1.15,2013-08-10 00:25:00,
2013-08-09 18:30:00,53.3,48.3,30.01,SSW,213,0.0,0.0,83,0.00,,,0.18,40,Wunderground v.1.15,2013-08-10 00:30:00,
2013-08-09 18:35:00,53.5,48.8,30.01,SSW,213,0.0,0.0,84,0.00,,,0.18,30,Wunderground v.1.15,2013-08-10 00:35:00,
2013-08-09 18:40:00,53.5,48.1,30.01,SSW,213,0.0,0.0,82,0.00,,,0.18,28,Wunderground v.1.15,2013-08-10 00:40:00,
2013-08-09 18:45:00,53.5,48.1,29.99,SSW,213,0.0,0.0,82,0.00,,,0.18,25,Wunderground v.1.15,2013-08-10 00:45:00,
2013-08-09 18:55:00,52.9,45.5,29.99,SSE,155,1.0,4.0,76,0.00,,,0.18,14,Wunderground v.1.15,2013-08-10 00:55:00,
2013-08-09 19:00:00,52.8,45.4,30.01,SSE,152,3.0,4.0,76,0.00,,,0.18,11,Wunderground v.1.15,2013-08-10 01:00:00,
2013-08-09 19:05:00,52.6,45.2,30.01,SE,137,2.0,4.0,76,0.00,,,0.18,9,Wunderground v.1.15,2013-08-10 01:05:00,
2013-08-09 19:10:00,52.5,45.2,30.01,SE,141,1.0,1.0,76,0.00,,,0.18,11,Wunderground v.1.15,2013-08-10 01:10:00,
2013-08-09 19:20:00,52.0,45.4,30.02,SE,145,1.0,2.0,78,0.00,,,0.18,5,Wunderground v.1.15,2013-08-10 01:20:00,
2013-08-09 19:25:00,52.2,45.5,30.02,SSE,147,0.0,2.0,78,0.00,,,0.18,5,Wunderground v.1.15,2013-08-10 01:25:00,
2013-08-09 19:30:00,52.2,45.5,30.02,SSE,147,0.0,0.0,78,0.00,,,0.18,5,Wunderground v.1.15,2013-08-10 01:30:00,
2013-08-09 19:40:00,52.0,45.4,30.02,SSE,147,0.0,0.0,78,0.00,,,0.18,0,Wunderground v.1.15,2013-08-10 01:40:00,
2013-08-09 19:45:00,51.9,45.6,30.04,SSE,147,0.0,0.0,79,0.00,,,0.18,0,Wunderground v.1.15,2013-08-10 01:45:00,
2013-08-09 19:50:00,51.9,45.6,30.04,SSE,147,0.0,4.0,79,0.00,,,0.18,0,Wunderground v.1.15,2013-08-10 01:50:00,
2013-08-09 19:55:00,51.6,45.3,30.04,South,171,1.0,4.0,79,0.00,,,0.18,0,Wunderground v.1.15,2013-08-10 01:55:00,
2013-08-09 20:00:00,51.4,45.1,30.04,South,182,1.0,1.0,79,0.00,,,0.18,0,Wunderground v.1.15,2013-08-10 02:00:00,
2013-08-09 20:05:00,51.3,45.0,30.04,South,181,1.0,1.0,79,0.00,,,0.18,0,Wunderground v.1.15,2013-08-10 02:05:00,
2013-08-09 20:10:00,51.1,44.8,30.04,South,181,0.0,2.0,79,0.00,,,0.18,0,Wunderground v.1.15,2013-08-10 02:10:00,
2013-08-09 20:15:00,51.0,44.7,30.04,South,184,0.0,2.0,79,0.00,,,0.18,0,Wunderground v.1.15,2013-08-10 02:15:00,
2013-08-09 20:20:00,50.8,44.5,30.04,South,189,0.0,0.0,79,0.00,,,0.18,0,Wunderground v.1.15,2013-08-10 02:20:00,
2013-08-09 20:25:00,50.7,44.4,30.04,South,189,0.0,0.0,79,0.00,,,0.18,0,Wunderground v.1.15,2013-08-10 02:25:00,
2013-08-09 20:30:00,50.5,44.2,30.00,South,189,0.0,0.0,79,0.00,,,0.18,0,Wunderground v.1.15,2013-08-10 02:30:00,
2013-08-09 20:40:00,50.1,44.2,30.00,SSW,212,0.0,2.0,80,0.00,,,0.18,0,Wunderground v.1.15,2013-08-10 02:40:00,
2013-08-09 20:50:00,49.6,43.4,30.01,WSW,244,2.0,2.0,79,0.00,,,0.18,0,Wunderground v.1.15,2013-08-10 02:50:00,
2013-08-09 20:55:00,49.4,43.2,30.01,WSW,244,1.0,2.0,79,0.00,,,0.18,0,Wunderground v.1.15,2013-08-10 02:55:00,
2013-08-09 21:00:00,49.2,43.0,30.03,WSW,243,0.0,1.0,79,0.00,,,0.18,0,Wunderground v.1.15,2013-08-10 03:00:00,
2013-08-09 21:05:00,49.1,42.9,30.03,WSW,239,1.0,2.0,79,0.00,,,0.18,0,Wunderground v.1.15,2013-08-10 03:05:00,
2013-08-09 21:10:00,48.9,42.3,30.03,WSW,237,2.0,2.0,78,0.00,,,0.18,0,Wunderground v.1.15,2013-08-10 03:10:00,
2013-08-09 21:20:00,48.5,41.6,30.03,WSW,239,3.0,3.0,77,0.00,,,0.18,0,Wunderground v.1.15,2013-08-10 03:20:00,
2013-08-09 21:25:00,48.5,42.0,30.03,WSW,239,2.0,3.0,78,0.00,,,0.18,0,Wunderground v.1.15,2013-08-10 03:25:00,
2013-08-09 21:35:00,48.2,42.0,29.98,WSW,237,0.0,1.0,79,0.00,,,0.18,0,Wunderground v.1.15,2013-08-10 03:35:00,
2013-08-09 21:40:00,48.2,42.3,29.98,SSE,164,1.0,1.0,80,0.00,,,0.18,0,Wunderground v.1.15,2013-08-10 03:40:00,
2013-08-09 21:50:00,47.7,41.8,29.99,SSE,164,0.0,1.0,80,0.00,,,0.18,0,Wunderground v.1.15,2013-08-10 03:50:00,
2013-08-09 21:55:00,47.6,41.7,29.99,SSE,164,0.0,1.0,80,0.00,,,0.18,0,Wunderground v.1.15,2013-08-10 03:55:00,
2013-08-09 22:00:00,47.4,41.5,30.00,SSE,164,0.0,0.0,80,0.00,,,0.18,0,Wunderground v.1.15,2013-08-10 04:00:00,
2013-08-09 22:05:00,47.3,41.8,30.00,SSE,164,0.0,0.0,81,0.00,,,0.18,0,Wunderground v.1.15,2013-08-10 04:05:00,
2013-08-09 22:10:00,47.0,41.5,30.00,SSW,199,1.0,8.0,81,0.00,,,0.18,0,Wunderground v.1.15,2013-08-10 04:10:00,
2013-08-09 22:15:00,46.8,40.6,30.00,SSW,193,4.0,8.0,79,0.00,,,0.18,0,Wunderground v.1.15,2013-08-10 04:15:00,
2013-08-09 22:20:00,46.5,40.3,30.00,WSW,254,5.0,5.0,79,0.00,,,0.18,0,Wunderground v.1.15,2013-08-10 04:20:00,
2013-08-09 22:25:00,46.5,40.0,30.00,SW,222,4.0,5.0,78,0.00,,,0.18,0,Wunderground v.1.15,2013-08-10 04:25:00,
2013-08-09 22:30:00,46.5,40.0,29.93,SW,222,1.0,1.0,78,0.00,,,0.18,0,Wunderground v.1.15,2013-08-10 04:30:00,
2013-08-09 22:35:00,46.5,40.3,29.93,SW,222,0.0,1.0,79,0.00,,,0.18,0,Wunderground v.1.15,2013-08-10 04:35:00,
2013-08-09 22:40:00,46.5,40.3,29.93,SW,222,0.0,0.0,79,0.00,,,0.18,0,Wunderground v.1.15,2013-08-10 04:40:00,
2013-08-09 22:50:00,46.4,40.2,29.93,SW,222,0.0,0.0,79,0.00,,,0.18,0,Wunderground v.1.15,2013-08-10 04:50:00,
2013-08-09 22:55:00,46.2,40.0,29.93,SW,222,0.0,0.0,79,0.00,,,0.18,0,Wunderground v.1.15,2013-08-10 04:55:00,
2013-08-09 23:00:00,46.2,40.0,29.93,SW,222,0.0,0.0,79,0.00,,,0.18,0,Wunderground v.1.15,2013-08-10 05:00:00,
2013-08-09 23:05:00,46.1,39.9,29.93,SW,233,0.0,0.0,79,0.00,,,0.18,0,Wunderground v.1.15,2013-08-10 05:05:00,
2013-08-09 23:10:00,45.8,39.7,29.93,South,191,0.0,0.0,79,0.00,,,0.18,0,Wunderground v.1.15,2013-08-10 05:10:00,
2013-08-09 23:15:00,45.7,39.6,29.93,SSE,158,2.0,6.0,79,0.00,,,0.18,0,Wunderground v.1.15,2013-08-10 05:15:00,
2013-08-09 23:20:00,45.7,39.6,29.93,SSW,203,3.0,3.0,79,0.00,,,0.18,0,Wunderground v.1.15,2013-08-10 05:20:00,
2013-08-09 23:25:00,45.7,39.9,29.93,SSW,206,2.0,3.0,80,0.00,,,0.18,0,Wunderground v.1.15,2013-08-10 05:25:00,
2013-08-09 23:30:00,45.7,39.9,29.90,SW,230,3.0,6.0,80,0.00,,,0.18,0,Wunderground v.1.15,2013-08-10 05:30:00,
2013-08-09 23:40:00,45.7,39.2,29.90,SW,224,3.0,6.0,78,0.00,,,0.18,0,Wunderground v.1.15,2013-08-10 05:40:00,
2013-08-09 23:45:00,45.8,39.7,29.91,South,184,3.0,6.0,79,0.00,,,0.18,0,Wunderground v.1.15,2013-08-10 05:45:00,
2013-08-09 23:50:00,46.0,39.5,29.91,SSW,196,4.0,7.0,78,0.00,,,0.18,0,Wunderground v.1.15,2013-08-10 05:50:00,